CW4740 Weather Reports


Display with metric or nautical units.
time (UTC)temp
F
wind
direction
speed
MPH
gust
MPH
rain 1hr
in
rain 24hr
in
rain mn
in
humidity
%
barometer
mb
20260904145215 86 190 2.0 6.0 0.40 0.61 0.46 88 1017.2
20260904144711 85 200 3.0 7.0 0.45 0.61 0.46 89 1017.2
20260904144226 85 209 3.0 6.0 0.46 0.61 0.46 91 1017.0
20260904144144 85 209 3.0 6.0 0.46 0.61 0.46 91 1017.0
20260904143700 85 233 2.0 4.0 0.46 0.61 0.46 92 1017.0
20260904143136 84 346 0.0 4.0 0.46 0.61 0.46 92 1016.9
20260904142653 84 346 0.0 4.0 0.46 0.61 0.46 93 1016.9
20260904142150 83 345 1.0 5.0 0.46 0.61 0.46 92 1016.8
20260904141646 83 345 3.0 7.0 0.46 0.61 0.46 90 1016.8
20260904141245 83 253 3.0 11.0 0.44 0.59 0.44 89 1016.8
20260904140637 83 326 5.0 11.0 0.35 0.50 0.35 88 1016.9
20260904140214 84 248 4.0 6.0 0.15 0.30 0.15 89 1016.7
20260904140131 84 248 4.0 6.0 0.15 0.30 0.15 89 1016.7
20260904135718 85 251 3.0 5.0 0.08 0.23 0.08 88 1016.6
20260904135133 85 246 1.0 17.0 0.06 0.21 0.06 85 1016.6
20260904134650 86 252 9.0 17.0 0.00 0.15 0.00 81 1016.5
20260904134147 88 247 5.0 10.0 0.00 0.15 0.00 79 1016.6
20260904133706 90 270 3.0 10.0 0.00 0.15 0.00 79 1016.6
20260904133202 89 233 4.0 9.0 0.00 0.15 0.00 79 1016.5
20260904132637 89 109 5.0 11.0 0.00 0.15 0.00 79 1016.5
20260904132134 89 132 6.0 11.0 0.00 0.15 0.00 79 1016.4
20260904131651 89 130 3.0 10.0 0.00 0.15 0.00 81 1016.2
20260904131207 89 143 4.0 10.0 0.00 0.15 0.00 80 1016.2
20260904130703 89 149 5.0 8.0 0.00 0.15 0.00 81 1016.2
20260904130141 88 146 4.0 11.0 0.00 0.15 0.00 82 1016.2
20260904125708 88 135 4.0 11.0 0.00 0.15 0.00 83 1016.1
20260904125225 87 175 3.0 6.0 0.00 0.15 0.00 84 1016.1
20260904124654 87 167 0.0 5.0 0.00 0.15 0.00 87 1016.0
20260904124250 86 221 2.0 5.0 0.00 0.15 0.00 88 1016.0
20260904124147 86 221 2.0 5.0 0.00 0.15 0.00 88 1016.0
20260904123706 85 150 3.0 5.0 0.00 0.15 0.00 89 1016.0
20260904123142 85 135 0.0 2.0 0.00 0.15 0.00 91 1016.1
20260904122658 84 135 0.0 0.0 0.00 0.15 0.00 92 1015.9
20260904122134 84 135 0.0 0.0 0.00 0.15 0.00 93 1016.0
20260904121713 83 135 0.0 0.0 0.00 0.15 0.00 93 1016.0
20260904121249 83 135 0.0 0.0 0.00 0.15 0.00 94 1016.0
20260904121206 83 135 0.0 0.0 0.00 0.15 0.00 94 1016.0
20260904120703 82 135 0.0 0.0 0.00 0.15 0.00 94 1015.9
20260904120142 82 135 0.0 0.0 0.00 0.15 0.00 94 1015.8
20260904115651 82 135 0.0 0.0 0.00 0.15 0.00 94 1015.8
20260904115148 82 135 0.0 0.0 0.00 0.15 0.00 94 1015.7
20260904114745 82 135 0.0 0.0 0.00 0.15 0.00 94 1015.6
20260904114642 82 135 0.0 0.0 0.00 0.15 0.00 94 1015.6
20260904114140 81 135 0.0 0.0 0.00 0.15 0.00 94 1015.6
20260904113716 81 135 0.0 0.0 0.00 0.15 0.00 94 1015.6
20260904113131 81 135 0.0 0.0 0.00 0.15 0.00 94 1015.6
20260904112747 81 135 0.0 0.0 0.00 0.15 0.00 94 1015.8
20260904112141 81 135 0.0 0.0 0.00 0.15 0.00 93 1015.8
20260904111639 81 135 0.0 0.0 0.00 0.15 0.00 94 1015.7
20260904111217 81 135 0.0 0.0 0.00 0.15 0.00 94 1015.6
20260904110633 81 135 0.0 0.0 0.00 0.15 0.00 93 1015.5
20260904110131 81 135 0.0 0.0 0.00 0.15 0.00 93 1015.4
20260904105640 81 135 0.0 0.0 0.00 0.15 0.00 93 1015.3
20260904105218 81 135 0.0 0.0 0.00 0.15 0.00 93 1015.3
20260904104733 81 135 0.0 0.0 0.00 0.15 0.00 93 1015.3
20260904104630 81 135 0.0 0.0 0.00 0.15 0.00 93 1015.3
20260904104206 81 135 0.0 0.0 0.00 0.15 0.00 93 1015.2
20260904103642 81 135 0.0 0.0 0.00 0.15 0.00 93 1015.1
20260904103220 81 135 0.0 0.0 0.00 0.15 0.00 93 1015.0
20260904102635 81 135 0.0 0.0 0.00 0.15 0.00 93 1014.9
20260904102155 81 135 0.0 0.0 0.00 0.15 0.00 92 1015.0
20260904101631 81 135 0.0 0.0 0.00 0.15 0.00 92 1015.0
20260904101129 81 135 0.0 0.0 0.00 0.15 0.00 92 1014.9
20260904100728 81 135 0.0 0.0 0.00 0.15 0.00 92 1014.8
20260904100143 81 135 0.0 0.0 0.00 0.15 0.00 92 1014.8
20260904095650 81 135 0.0 0.0 0.00 0.15 0.00 92 1014.8
20260904095143 81 135 0.0 0.0 0.00 0.15 0.00 91 1014.7
20260904094659 82 135 0.0 0.0 0.00 0.15 0.00 91 1014.7
20260904094136 82 135 0.0 0.0 0.00 0.15 0.00 91 1014.7
20260904093634 82 135 0.0 0.0 0.00 0.15 0.00 91 1014.7
20260904093131 82 135 0.0 0.0 0.00 0.15 0.00 91 1014.6
20260904092730 82 135 0.0 0.0 0.00 0.15 0.00 91 1014.6
20260904092145 82 135 0.0 0.0 0.00 0.15 0.00 91 1014.6
20260904091643 82 135 0.0 0.0 0.00 0.15 0.00 91 1014.5
20260904091142 82 135 0.0 0.0 0.00 0.15 0.00 91 1014.6
20260904090720 82 135 0.0 0.0 0.00 0.15 0.00 91 1014.5
20260904090135 82 135 0.0 0.0 0.00 0.15 0.00 91 1014.5
20260904085701 82 135 0.0 0.0 0.00 0.15 0.00 91 1014.5
20260904085137 82 135 0.0 0.0 0.00 0.15 0.00 90 1014.5
20260904084634 82 135 0.0 0.0 0.00 0.15 0.00 90 1014.5
20260904084132 82 135 0.0 0.0 0.00 0.15 0.00 90 1014.5
20260904083709 82 135 0.0 0.0 0.00 0.15 0.00 90 1014.5
20260904083206 82 135 0.0 0.0 0.00 0.15 0.00 90 1014.5
20260904082643 82 135 0.0 0.0 0.00 0.15 0.00 90 1014.4
20260904082221 82 135 0.0 0.0 0.00 0.15 0.00 90 1014.3
20260904081637 83 135 0.0 0.0 0.00 0.15 0.00 90 1014.3
20260904081155 82 135 0.0 0.0 0.00 0.15 0.00 90 1014.3
20260904080632 82 135 0.0 0.0 0.00 0.15 0.00 90 1014.3
20260904080208 82 135 0.0 0.0 0.00 0.15 0.00 90 1014.3
20260904075712 83 135 0.0 0.0 0.00 0.15 0.00 90 1014.2
20260904075147 83 135 0.0 0.0 0.00 0.15 0.00 90 1014.2
20260904074644 83 135 0.0 0.0 0.00 0.15 0.00 90 1014.3
20260904074141 83 135 0.0 0.0 0.00 0.15 0.00 89 1014.3
20260904073637 83 135 0.0 0.0 0.00 0.15 0.00 90 1014.4
20260904073154 83 135 0.0 0.0 0.00 0.15 0.00 90 1014.4
20260904072650 83 135 0.0 0.0 0.00 0.15 0.00 90 1014.4
20260904072148 83 135 0.0 0.0 0.00 0.15 0.00 89 1014.4
20260904071726 83 135 0.0 0.0 0.00 0.15 0.00 89 1014.4
20260904071142 83 135 0.0 0.0 0.00 0.15 0.00 89 1014.4
20260904070637 83 135 0.0 0.0 0.00 0.15 0.00 89 1014.6
20260904070134 83 135 0.0 0.0 0.00 0.15 0.00 88 1014.5
20260904065701 83 135 0.0 0.0 0.00 0.15 0.00 88 1014.5
20260904065138 83 135 0.0 0.0 0.00 0.15 0.00 88 1014.5
20260904064637 83 135 0.0 0.0 0.00 0.15 0.00 87 1014.5
20260904064154 83 135 0.0 0.0 0.00 0.15 0.00 87 1014.5
20260904063650 83 135 0.0 0.0 0.00 0.15 0.00 86 1014.6
20260904063227 83 135 0.0 0.0 0.00 0.15 0.00 86 1014.6
20260904062703 84 135 0.0 0.0 0.00 0.15 0.00 86 1014.6
20260904062159 84 135 0.0 0.0 0.00 0.15 0.00 85 1014.6
20260904061656 84 135 0.0 0.0 0.00 0.15 0.00 85 1014.7
20260904061155 84 135 0.0 0.0 0.00 0.15 0.00 84 1014.7
20260904060630 84 135 0.0 0.0 0.00 0.15 0.00 84 1014.9
20260904060148 84 135 0.0 0.0 0.00 0.15 0.00 84 1014.8
20260904055635 84 135 0.0 0.0 0.00 0.15 0.00 84 1014.8
20260904055133 85 135 0.0 0.0 0.00 0.15 0.00 84 1014.8
20260904054712 85 135 0.0 3.0 0.00 0.15 0.00 83 1014.8
20260904054208 85 135 1.0 3.0 0.00 0.15 0.00 83 1014.9
20260904053644 85 135 2.0 3.0 0.00 0.15 0.00 83 1014.8
20260904053142 85 135 0.0 2.0 0.00 0.15 0.00 83 1014.9
20260904052659 85 135 0.0 3.0 0.00 0.15 0.00 83 1015.0
20260904052135 85 135 1.0 3.0 0.00 0.15 0.00 83 1015.1
20260904051732 85 135 1.0 3.0 0.00 0.15 0.00 83 1015.0
20260904051207 86 135 1.0 4.0 0.00 0.15 0.00 82 1015.1
20260904050643 86 135 2.0 4.0 0.00 0.15 0.00 82 1015.0
20260904050219 86 135 2.0 5.0 0.00 0.15 0.00 81 1015.0
20260904050137 86 135 2.0 5.0 0.00 0.15 0.00 81 1015.0
20260904045724 86 135 2.0 4.0 0.00 0.15 0.00 80 1015.2
20260904045642 86 135 2.0 4.0 0.00 0.15 0.00 80 1015.2
20260904045139 86 135 1.0 4.0 0.00 0.15 0.00 79 1015.3
20260904044657 86 135 2.0 4.0 0.00 0.15 0.00 79 1015.3
20260904044153 86 135 2.0 5.0 0.00 0.15 0.00 80 1015.3
20260904043631 86 135 1.0 3.0 0.00 0.15 0.00 80 1015.2
20260904043208 86 135 2.0 4.0 0.00 0.15 0.00 81 1015.2
20260904042645 86 135 2.0 5.0 0.00 0.15 0.00 81 1015.2
20260904042143 86 135 2.0 5.0 0.00 0.15 0.00 81 1015.4
20260904041702 86 135 1.0 4.0 0.00 0.15 0.00 81 1015.3
20260904041201 86 135 1.0 4.0 0.00 0.15 0.00 81 1015.5
20260904040657 86 135 1.0 4.0 0.00 0.15 0.00 81 1015.5
20260904040132 86 135 2.0 4.0 0.00 0.24 0.15 81 1015.5
20260904035659 86 135 1.0 5.0 0.00 0.24 0.15 81 1015.4
20260904035134 86 135 1.0 5.0 0.00 0.24 0.15 81 1015.2
20260904034632 86 135 2.0 4.0 0.00 0.24 0.15 81 1015.3
20260904034150 86 135 2.0 5.0 0.00 0.24 0.15 81 1015.4
20260904033708 86 135 2.0 5.0 0.00 0.24 0.15 81 1015.4
20260904033145 86 135 1.0 4.0 0.00 0.24 0.15 81 1015.5
20260904032642 86 135 2.0 3.0 0.00 0.24 0.15 81 1015.5
20260904032159 86 135 1.0 2.0 0.00 0.24 0.15 81 1015.6
20260904031656 86 135 0.0 3.0 0.00 0.24 0.15 81 1015.5
20260904031212 86 135 2.0 4.0 0.00 0.24 0.15 80 1015.4
20260904031130 86 135 2.0 4.0 0.00 0.24 0.15 80 1015.4
20260904030648 86 135 2.0 4.0 0.00 0.24 0.15 80 1015.5
20260904030145 86 135 1.0 3.0 0.00 0.24 0.15 80 1015.7
20260904025633 86 135 1.0 3.0 0.00 0.24 0.15 80 1015.6
20260904025209 86 135 1.0 3.0 0.00 0.24 0.15 80 1015.7
20260904024704 86 135 1.0 3.0 0.00 0.24 0.15 80 1015.7
20260904024200 86 135 0.0 4.0 0.00 0.24 0.15 80 1015.7
20260904023636 86 135 1.0 4.0 0.00 0.24 0.15 79 1015.5
20260904023134 87 135 2.0 3.0 0.00 0.24 0.15 79 1015.5
20260904022652 87 135 0.0 3.0 0.00 0.24 0.15 79 1015.7
20260904022129 86 135 1.0 4.0 0.00 0.24 0.15 79 1015.7
20260904021726 86 135 1.0 5.0 0.00 0.24 0.15 79 1015.6
20260904021203 86 135 2.0 5.0 0.00 0.24 0.15 79 1015.5
20260904020740 87 135 2.0 5.0 0.00 0.24 0.15 79 1015.5
20260904020636 87 135 2.0 5.0 0.00 0.24 0.15 79 1015.5
20260904020155 87 134 1.0 3.0 0.00 0.24 0.15 79 1015.6
20260904015740 87 134 0.0 3.0 0.00 0.24 0.15 79 1015.5
20260904015658 87 134 0.0 3.0 0.00 0.24 0.15 79 1015.5
20260904015154 87 134 0.0 7.0 0.00 0.24 0.15 79 1015.3
20260904014629 87 134 3.0 7.0 0.00 0.24 0.15 79 1015.2
20260904014246 87 134 2.0 4.0 0.00 0.24 0.15 79 1015.3
20260904013641 87 134 1.0 9.0 0.00 0.24 0.15 79 1015.2
20260904013158 87 180 3.0 7.0 0.00 0.24 0.15 79 1015.1
20260904012715 87 148 3.0 9.0 0.00 0.24 0.15 79 1015.1
20260904012151 87 136 3.0 9.0 0.00 0.24 0.15 79 1015.2
20260904011648 87 148 3.0 10.0 0.00 0.24 0.15 79 1015.0
20260904011242 87 147 4.0 10.0 0.00 0.24 0.15 79 1015.0
20260904010737 87 166 3.0 7.0 0.00 0.24 0.15 79 1015.1
20260904010133 87 165 3.0 7.0 0.00 0.24 0.15 79 1015.1
20260904005742 87 159 2.0 7.0 0.00 0.24 0.15 79 1015.1
20260904005700 87 159 2.0 7.0 0.00 0.24 0.15 79 1015.1
20260904005138 87 158 3.0 7.0 0.00 0.24 0.15 79 1015.1
20260904004715 87 146 3.0 9.0 0.00 0.24 0.15 78 1014.9
20260904004147 87 134 4.0 9.0 0.00 0.24 0.15 78 1014.9
20260904003724 87 142 3.0 9.0 0.00 0.24 0.15 78 1014.9
20260904003140 87 159 4.0 9.0 0.00 0.24 0.15 79 1014.8
20260904002736 87 155 3.0 7.0 0.00 0.24 0.15 78 1014.8
20260904002633 87 155 3.0 7.0 0.00 0.24 0.15 78 1014.8
20260904002129 87 158 3.0 7.0 0.00 0.24 0.15 78 1014.8
20260904001646 87 125 3.0 5.0 0.00 0.24 0.15 78 1014.9
20260904001144 87 144 2.0 8.0 0.00 0.24 0.15 78 1014.9
20260904000702 87 158 2.0 7.0 0.00 0.24 0.15 78 1014.8
20260904000140 88 141 3.0 7.0 0.00 0.24 0.15 78 1014.7
20260903235628 87 125 2.0 6.0 0.00 0.24 0.15 78 1014.8
20260903235145 87 149 2.0 7.0 0.00 0.24 0.15 78 1014.7
20260903234644 88 146 3.0 7.0 0.00 0.24 0.15 77 1014.7
20260903234201 88 130 4.0 7.0 0.00 0.24 0.15 77 1014.7
20260903233638 88 140 2.0 8.0 0.00 0.24 0.15 77 1014.7
20260903233135 88 130 4.0 9.0 0.00 0.24 0.15 77 1014.6
20260903232635 88 149 4.0 9.0 0.00 0.24 0.15 77 1014.6
20260903232229 88 121 2.0 7.0 0.00 0.24 0.15 77 1014.4
20260903231723 88 136 3.0 8.0 0.00 0.24 0.15 77 1014.3
20260903231158 88 144 5.0 9.0 0.00 0.24 0.15 77 1014.4
20260903230635 88 119 4.0 9.0 0.00 0.24 0.15 77 1014.5
20260903230131 88 137 3.0 6.0 0.00 0.24 0.15 77 1014.6
20260903225638 88 119 2.0 9.0 0.00 0.24 0.15 76 1014.7
20260903225216 88 129 2.0 9.0 0.00 0.24 0.15 77 1014.7
20260903224632 89 161 1.0 6.0 0.00 0.24 0.15 77 1014.8
20260903224130 89 144 2.0 6.0 0.00 0.24 0.15 76 1014.8
20260903223708 89 131 2.0 8.0 0.00 0.24 0.15 77 1014.7
20260903223206 88 135 3.0 8.0 0.00 0.24 0.15 77 1014.5
20260903222723 89 153 2.0 7.0 0.00 0.24 0.15 77 1014.5
20260903222641 89 153 2.0 7.0 0.00 0.24 0.15 77 1014.5
20260903222139 89 120 4.0 8.0 0.00 0.24 0.15 76 1014.4
20260903221637 89 163 2.0 8.0 0.00 0.24 0.15 77 1014.4
20260903221133 88 142 4.0 9.0 0.00 0.24 0.15 76 1014.2
20260903220629 88 141 3.0 10.0 0.00 0.24 0.15 75 1014.1
20260903220208 89 157 5.0 10.0 0.00 0.24 0.15 75 1014.0
20260903215656 89 119 4.0 9.0 0.00 0.24 0.15 75 1014.1
20260903215251 89 140 4.0 7.0 0.00 0.24 0.15 74 1014.1
20260903215148 89 140 4.0 7.0 0.00 0.24 0.15 74 1014.1
20260903214646 89 157 4.0 9.0 0.00 0.24 0.15 75 1014.0
20260903214143 89 96 4.0 9.0 0.00 0.24 0.15 75 1014.0
20260903213720 89 121 3.0 7.0 0.00 0.24 0.15 75 1013.9
20260903213137 89 133 3.0 11.0 0.00 0.24 0.15 73 1013.8
20260903212633 89 123 2.0 11.0 0.00 0.24 0.15 74 1013.7
20260903212151 89 189 4.0 10.0 0.00 0.24 0.15 74 1013.5
20260903211628 90 153 7.0 14.0 0.00 0.24 0.15 73 1013.6
20260903211146 90 140 7.0 14.0 0.00 0.24 0.15 70 1013.7
20260903210644 91 142 5.0 10.0 0.00 0.24 0.15 71 1013.9
20260903210143 90 117 3.0 9.0 0.00 0.24 0.15 73 1013.9
20260903205633 90 141 5.0 9.0 0.00 0.24 0.15 73 1014.1
20260903205128 90 136 4.0 9.0 0.00 0.24 0.15 72 1014.2
20260903204644 91 129 4.0 9.0 0.00 0.24 0.15 71 1014.2
20260903204139 91 119 6.0 10.0 0.00 0.24 0.15 72 1014.0
20260903203636 91 134 6.0 13.0 0.00 0.24 0.15 72 1013.7
20260903203134 91 119 6.0 13.0 0.00 0.24 0.15 71 1013.6
20260903202631 91 132 4.0 12.0 0.00 0.24 0.15 69 1013.6
20260903202129 91 126 7.0 12.0 0.00 0.24 0.15 66 1013.5
20260903201707 91 142 7.0 12.0 0.00 0.24 0.15 69 1013.4
20260903201204 91 164 6.0 11.0 0.00 0.24 0.15 69 1013.7
20260903200641 91 155 4.0 10.0 0.00 0.24 0.15 69 1013.8
20260903200200 91 117 6.0 12.0 0.00 0.24 0.15 70 1013.8
20260903195709 91 111 7.0 12.0 0.00 0.24 0.15 69 1013.8
20260903195143 91 247 5.0 11.0 0.00 0.24 0.15 70 1013.8
20260903194659 91 140 4.0 12.0 0.00 0.24 0.15 71 1013.7
20260903194135 91 59 5.0 11.0 0.00 0.24 0.15 72 1013.8
20260903193651 91 67 4.0 12.0 0.00 0.24 0.15 72 1014.1
20260903193227 91 120 7.0 12.0 0.00 0.24 0.15 70 1014.0
20260903192738 91 71 5.0 11.0 0.00 0.24 0.15 71 1014.0
20260903192656 91 71 5.0 11.0 0.00 0.24 0.15 71 1014.0
20260903192153 91 152 5.0 12.0 0.00 0.24 0.15 71 1013.9
20260903191730 91 200 7.0 13.0 0.00 0.24 0.15 71 1013.9
20260903191207 91 105 6.0 13.0 0.00 0.24 0.15 72 1013.9
20260903190703 91 167 7.0 12.0 0.00 0.24 0.15 71 1014.1
20260903190138 91 197 6.0 12.0 0.00 0.24 0.15 72 1014.2
20260903185705 91 133 7.0 12.0 0.00 0.24 0.15 72 1014.1
20260903185201 91 167 8.0 12.0 0.00 0.24 0.15 75 1014.1
20260903184658 90 88 6.0 12.0 0.00 0.24 0.15 76 1014.1
20260903184214 91 173 7.0 14.0 0.00 0.24 0.15 75 1014.1
20260903184131 91 173 7.0 14.0 0.00 0.24 0.15 75 1014.1
20260903183649 91 99 7.0 11.0 0.00 0.24 0.15 75 1014.1
20260903183147 91 111 8.0 12.0 0.00 0.24 0.15 75 1014.0
20260903182645 91 102 5.0 13.0 0.00 0.24 0.15 77 1014.0
20260903182142 90 138 7.0 13.0 0.00 0.24 0.15 74 1014.2
20260903181659 91 84 6.0 10.0 0.00 0.24 0.15 74 1014.3
20260903181134 91 127 5.0 12.0 0.00 0.24 0.15 74 1014.4
20260903180631 91 147 7.0 12.0 0.00 0.24 0.15 74 1014.4
20260903180209 90 141 6.0 11.0 0.00 0.24 0.15 74 1014.2
20260903175655 90 110 6.0 12.0 0.00 0.24 0.15 75 1014.3
20260903175210 90 134 8.0 12.0 0.00 0.24 0.15 74 1014.4
20260903174726 90 89 6.0 11.0 0.00 0.24 0.15 75 1014.5
20260903174139 90 111 4.0 11.0 0.00 0.24 0.15 75 1014.5
20260903173656 90 114 7.0 13.0 0.00 0.24 0.15 74 1014.6
20260903173153 90 86 8.0 13.0 0.00 0.24 0.15 75 1014.7
20260903172629 90 128 7.0 11.0 0.00 0.24 0.15 75 1014.7
20260903172147 91 139 5.0 11.0 0.00 0.24 0.15 75 1014.8
20260903171644 91 139 7.0 11.0 0.00 0.24 0.15 74 1014.9
20260903171242 91 138 5.0 9.0 0.00 0.24 0.15 75 1015.1
20260903171200 91 138 5.0 9.0 0.00 0.24 0.15 75 1015.1
20260903170716 90 119 3.0 8.0 0.00 0.24 0.15 77 1015.1
20260903170634 90 119 3.0 8.0 0.00 0.24 0.15 77 1015.1
20260903170153 90 118 5.0 8.0 0.00 0.24 0.15 75 1015.1
20260903165737 90 176 3.0 6.0 0.00 0.24 0.15 74 1015.3
20260903165153 89 125 3.0 7.0 0.01 0.24 0.15 74 1015.2
20260903164728 89 125 2.0 7.0 0.05 0.24 0.15 78 1015.3
20260903164143 88 154 3.0 8.0 0.15 0.24 0.15 78 1015.3
20260903163700 87 116 4.0 8.0 0.15 0.24 0.15 81 1015.3
20260903163156 87 155 3.0 6.0 0.15 0.24 0.15 84 1015.7
20260903162653 86 175 2.0 7.0 0.15 0.24 0.15 87 1015.6
20260903162230 86 233 2.0 6.0 0.15 0.24 0.15 89 1015.8
20260903161705 86 159 2.0 6.0 0.15 0.24 0.15 93 1015.8
20260903161203 84 105 1.0 3.0 0.15 0.24 0.15 93 1015.9
20260903160700 83 105 1.0 7.0 0.15 0.24 0.15 91 1015.9
20260903160157 83 105 3.0 8.0 0.15 0.24 0.15 90 1015.9
20260903155646 83 105 4.0 10.0 0.15 0.24 0.15 89 1015.9
20260903155145 84 139 4.0 12.0 0.14 0.23 0.14 87 1016.0
20260903154720 86 100 6.0 12.0 0.09 0.18 0.09 84 1016.1
20260903154638 86 100 6.0 12.0 0.09 0.18 0.09 84 1016.1
20260903154153 88 132 6.0 10.0 0.00 0.09 0.00 81 1015.9
20260903153629 89 115 3.0 7.0 0.00 0.09 0.00 79 1015.9
20260903153147 89 199 2.0 6.0 0.00 0.09 0.00 79 1015.9
20260903152723 89 178 2.0 8.0 0.00 0.09 0.00 80 1015.8
20260903152139 89 222 3.0 8.0 0.00 0.09 0.00 80 1016.0
20260903151637 89 167 3.0 7.0 0.00 0.09 0.00 79 1015.9
20260903151135 89 131 3.0 7.0 0.00 0.09 0.00 79 1015.8
20260903150653 89 175 1.0 7.0 0.00 0.09 0.00 79 1015.6
20260903150152 89 227 2.0 7.0 0.00 0.09 0.00 77 1015.6
20260903145700 89 213 2.0 6.0 0.00 0.09 0.00 77 1015.7